Powrót do katalogu

ARIANE 5 R/B

AktywnyGTO
NORAD 43634·ROCKET BODY·🇫🇷 France

Wystrzelony Sep 25, 2018 z Guiana Space Centre

Loading…

TLE

Starzejące sięSource: Space-Track

Epoka: Sep 14, 2026, 09:04 UTC

1 43634U 18074C   26257.37798711  .00003251  00000-0  91682-3 0  9995
2 43634   6.3210 359.1706 7127077 135.7035 310.7756  2.47484801 68540

Śledź ARIANE 5 R/B w czasie rzeczywistym z AllMySat

Download on the App Store